• In Switzerland
  • List of Countries
  • For 7 days
  • Water Temperature
  • Satellite Maps
  • Weather Map
  • Weather Widgets
  • user-avatar
    Login

    Hourly Weather Kinshasa

    Today, 18 October, Wednesday

    Time Temperature Precipitation Wind Pressure Humidity
    00:00 +23°C° 0 mm 1 mps 708 mmHg 96%
    01:00 +22°C° 0 mm 1 mps 708 mmHg 97%
    02:00 +22°C° 0 mm 1 mps 708 mmHg 97%
    03:00 +22°C° 0 mm 1 mps 708 mmHg 98%
    04:00 +22°C° 0 mm 1 mps 707 mmHg 98%
    05:00 +22°C° 0 mm 1 mps 708 mmHg 97%
    06:00 +23°C° 0 mm 1 mps 708 mmHg 95%
    07:00 +23°C° 0 mm 1 mps 708 mmHg 94%
    08:00 +25°C° 0 mm 1 mps 709 mmHg 85%
    09:00 +28°C° 0 mm 1 mps 709 mmHg 76%
    10:00 +30°C° 0 mm 1 mps 709 mmHg 67%
    11:00 +31°C° 0.1 mm 1 mps 709 mmHg 63%
    12:00 +33°C° 0.1 mm 1 mps 708 mmHg 59%
    13:00 +32°C° 0.1 mm 0 mps 707 mmHg 55%
    14:00 +33°C° 0.2 mm 1 mps 707 mmHg 62%
    15:00 +32°C° 0.2 mm 1 mps 706 mmHg 69%
    16:00 +30°C° 0.2 mm 1 mps 706 mmHg 75%
    17:00 +28°C° 0.6 mm 1 mps 706 mmHg 81%
    18:00 +26°C° 0.6 mm 1 mps 706 mmHg 87%
    19:00 +24°C° 0.6 mm 1 mps 706 mmHg 93%
    20:00 +24°C° 0 mm 1 mps 707 mmHg 94%
    21:00 +24°C° 0 mm 1 mps 707 mmHg 95%
    22:00 +23°C° 0 mm 1 mps 708 mmHg 96%
    23:00 +23°C° 0.6 mm 1 mps 708 mmHg 96%

    Tomorrow, 19 October, Thursday

    Time Temperature Precipitation Wind Pressure Humidity
    00:00 +23°C° 0.6 mm 1 mps 708 mmHg 97%
    01:00 +23°C° 0.6 mm 1 mps 708 mmHg 97%
    02:00 +22°C° 0.6 mm 1 mps 707 mmHg 97%
    03:00 +22°C° 0.6 mm 1 mps 707 mmHg 98%
    04:00 +22°C° 0.6 mm 1 mps 707 mmHg 98%
    05:00 +22°C° 0.1 mm 1 mps 708 mmHg 98%
    06:00 +23°C° 0.1 mm 1 mps 708 mmHg 97%
    07:00 +23°C° 0.1 mm 1 mps 709 mmHg 96%
    08:00 +25°C° 0.6 mm 1 mps 709 mmHg 93%
    09:00 +26°C° 0.6 mm 2 mps 710 mmHg 90%
    10:00 +28°C° 0.6 mm 2 mps 710 mmHg 87%
    11:00 +29°C° 0.2 mm 2 mps 709 mmHg 78%
    12:00 +30°C° 0.2 mm 2 mps 708 mmHg 69%
    13:00 +32°C° 0.2 mm 1 mps 708 mmHg 60%
    14:00 +31°C° 0.2 mm 1 mps 707 mmHg 63%
    15:00 +31°C° 0.2 mm 1 mps 707 mmHg 66%
    16:00 +31°C° 0.2 mm 1 mps 706 mmHg 68%
    17:00 +28°C° 0.5 mm 1 mps 707 mmHg 77%
    18:00 +26°C° 0.5 mm 1 mps 707 mmHg 86%
    19:00 +24°C° 0.5 mm 1 mps 707 mmHg 95%
    20:00 +24°C° 0.1 mm 1 mps 708 mmHg 95%
    21:00 +24°C° 0.1 mm 1 mps 708 mmHg 96%
    22:00 +23°C° 0.1 mm 1 mps 709 mmHg 96%
    23:00 +23°C° 0.2 mm 1 mps 708 mmHg 96%

    Day after tomorrow, 20 October, Friday

    Time Temperature Precipitation Wind Pressure Humidity
    00:00 +21°C° 0.2 mm 0 mps 708 mmHg 96%
    01:00 +21°C° 0.2 mm 0 mps 708 mmHg 96%
    02:00 +22°C° 0 mm 1 mps 708 mmHg 97%
    03:00 +22°C° 0 mm 1 mps 707 mmHg 97%
    04:00 +22°C° 0 mm 1 mps 707 mmHg 98%
    05:00 +23°C° 0 mm 1 mps 708 mmHg 97%
    06:00 +23°C° 0 mm 1 mps 708 mmHg 97%
    07:00 +23°C° 0 mm 1 mps 709 mmHg 96%
    08:00 +25°C° 0 mm 1 mps 709 mmHg 87%
    09:00 +27°C° 0 mm 2 mps 710 mmHg 79%
    10:00 +30°C° 0 mm 2 mps 710 mmHg 70%
    11:00 +31°C° 0.2 mm 1 mps 709 mmHg 65%
    12:00 +32°C° 0.2 mm 1 mps 709 mmHg 61%
    13:00 +34°C° 0.2 mm 1 mps 708 mmHg 56%
    14:00 +33°C° 0.4 mm 1 mps 707 mmHg 60%
    15:00 +32°C° 0.4 mm 1 mps 707 mmHg 64%
    16:00 +31°C° 0.4 mm 1 mps 706 mmHg 68%
    17:00 +29°C° 0.5 mm 1 mps 707 mmHg 76%
    18:00 +27°C° 0.5 mm 1 mps 707 mmHg 83%
    19:00 +25°C° 0.5 mm 1 mps 707 mmHg 91%
    20:00 +24°C° 0.5 mm 1 mps 708 mmHg 92%
    21:00 +24°C° 0.5 mm 1 mps 708 mmHg 93%
    22:00 +23°C° 0.5 mm 1 mps 708 mmHg 95%
    23:00 +23°C° 0.2 mm 1 mps 708 mmHg 95%

    21 October, Saturday

    Time Temperature Precipitation Wind Pressure Humidity
    00:00 +21°C° 0.2 mm 0 mps 708 mmHg 95%
    01:00 +21°C° 0.2 mm 0 mps 707 mmHg 95%
    02:00 +21°C° 0.6 mm 0 mps 707 mmHg 96%
    03:00 +21°C° 0.6 mm 0 mps 707 mmHg 96%
    04:00 +22°C° 0.6 mm 1 mps 707 mmHg 97%
    05:00 +23°C° 0.3 mm 1 mps 708 mmHg 96%
    06:00 +21°C° 0.3 mm 0 mps 708 mmHg 96%
    07:00 +22°C° 0.3 mm 0 mps 709 mmHg 95%
    08:00 +26°C° 0.2 mm 1 mps 709 mmHg 89%
    09:00 +28°C° 0.2 mm 1 mps 709 mmHg 83%
    10:00 +29°C° 0.2 mm 1 mps 709 mmHg 77%
    11:00 +31°C° 0.4 mm 1 mps 708 mmHg 71%
    12:00 +32°C° 0.4 mm 1 mps 708 mmHg 65%
    13:00 +33°C° 0.4 mm 1 mps 707 mmHg 60%
    14:00 +32°C° 0.1 mm 1 mps 706 mmHg 62%
    15:00 +32°C° 0.1 mm 1 mps 706 mmHg 64%
    16:00 +31°C° 0.1 mm 1 mps 706 mmHg 66%
    17:00 +29°C° 0.2 mm 1 mps 706 mmHg 73%
    18:00 +27°C° 0.2 mm 1 mps 707 mmHg 80%
    19:00 +26°C° 0.2 mm 1 mps 707 mmHg 87%
    20:00 +25°C° 0.4 mm 1 mps 707 mmHg 89%
    21:00 +25°C° 0.4 mm 1 mps 708 mmHg 91%
    22:00 +24°C° 0.4 mm 1 mps 708 mmHg 92%
    23:00 +24°C° 0.8 mm 1 mps 708 mmHg 93%

    22 October, Sunday

    Time Temperature Precipitation Wind Pressure Humidity
    00:00 +24°C° 0.8 mm 1 mps 708 mmHg 94%
    01:00 +22°C° 0.8 mm 0 mps 707 mmHg 95%
    02:00 +21°C° 2 mm 0 mps 707 mmHg 96%
    03:00 +21°C° 2 mm 0 mps 707 mmHg 97%
    04:00 +21°C° 2 mm 0 mps 707 mmHg 97%
    05:00 +23°C° 0.8 mm 1 mps 708 mmHg 97%
    06:00 +23°C° 0.8 mm 1 mps 709 mmHg 97%
    07:00 +23°C° 0.8 mm 1 mps 709 mmHg 97%
    08:00 +25°C° 0.7 mm 1 mps 709 mmHg 95%
    09:00 +26°C° 0.7 mm 1 mps 709 mmHg 93%
    10:00 +27°C° 0.7 mm 1 mps 710 mmHg 92%
    11:00 +28°C° 1 mm 1 mps 709 mmHg 87%
    12:00 +29°C° 1 mm 1 mps 708 mmHg 83%
    13:00 +29°C° 1 mm 1 mps 707 mmHg 78%
    14:00 +29°C° 0.8 mm 1 mps 707 mmHg 80%
    15:00 +29°C° 0.8 mm 1 mps 707 mmHg 82%
    16:00 +29°C° 0.8 mm 1 mps 706 mmHg 85%
    17:00 +27°C° 0.3 mm 1 mps 707 mmHg 88%
    18:00 +26°C° 0.3 mm 1 mps 707 mmHg 91%
    19:00 +25°C° 0.3 mm 1 mps 707 mmHg 94%
    20:00 +24°C° 0.1 mm 1 mps 708 mmHg 95%
    21:00 +24°C° 0.1 mm 1 mps 708 mmHg 95%
    22:00 +24°C° 0.1 mm 1 mps 708 mmHg 95%
    23:00 +23°C° 0.1 mm 1 mps 707 mmHg 95%

    23 October, Monday

    Time Temperature Precipitation Wind Pressure Humidity
    00:00 +23°C° 0.1 mm 1 mps 707 mmHg 96%
    01:00 +23°C° 0.1 mm 1 mps 707 mmHg 96%
    02:00 +22°C° 0.2 mm 1 mps 707 mmHg 96%
    03:00 +22°C° 0.2 mm 1 mps 707 mmHg 97%
    04:00 +22°C° 0.2 mm 1 mps 707 mmHg 97%
    05:00 +22°C° 0.1 mm 1 mps 707 mmHg 96%
    06:00 +23°C° 0.1 mm 1 mps 708 mmHg 96%
    07:00 +23°C° 0.1 mm 1 mps 708 mmHg 96%
    08:00 +25°C° 0 mm 1 mps 708 mmHg 87%
    09:00 +27°C° 0 mm 1 mps 709 mmHg 78%
    10:00 +30°C° 0 mm 1 mps 709 mmHg 69%
    11:00 +30°C° 0.7 mm 1 mps 708 mmHg 67%
    12:00 +31°C° 0.7 mm 1 mps 707 mmHg 65%
    13:00 +32°C° 0.7 mm 1 mps 706 mmHg 63%
    14:00 +31°C° 0.3 mm 1 mps 706 mmHg 67%
    15:00 +30°C° 0.3 mm 1 mps 706 mmHg 71%
    16:00 +29°C° 0.3 mm 1 mps 706 mmHg 75%
    17:00 +28°C° 0.1 mm 1 mps 706 mmHg 80%
    18:00 +26°C° 0.1 mm 1 mps 706 mmHg 84%
    19:00 +23°C° 0.1 mm 0 mps 706 mmHg 88%
    20:00 +22°C° 0.1 mm 0 mps 707 mmHg 89%
    21:00 +22°C° 0.1 mm 0 mps 707 mmHg 90%
    22:00 +22°C° 0.1 mm 0 mps 707 mmHg 91%
    23:00 +23°C° 0.1 mm 1 mps 707 mmHg 92%
    Show more